Location: Biharia
(46.4333°N, 22.8000°E)
Time: 23:04:18
(UTC+00:00)

Gbstr 26 Del rocket - Pass Details

Date: 16 October 2021
Orbit: 492 x 1263 km, 51.8° (Epoch: 26 November)

Event Time Altitude Azimuth Distance (km) Brightness Sun altitude
Rises 17:48:41 0° 297° (WNW) 3,827 8.4 -22.8°
Reaches altitude 10° 17:51:14 10° 296° (WNW) 2,964 7.5 -23.2°
Maximum altitude 17:58:38 84° 210° (SSW) 1,224 4.4 -24.5°
Enters shadow 18:01:32 44° 127° (SE) 1,646 4.7 -25.0°
